• Em Portugal
  • Lista de países
  • Para 7 dias
  • Temperatura da água
  • Mapas de satélite
  • Mapa do tempo
  • Widgets de tempo
  • user-avatar
    Iniciar Sessão

    Previsão horária em Cieszow

    Hoje, 25 Setembro, Terça-feira

    Tempo Temperatura Precipitação Vento Pressão Humidade
    00:00 +3°C° 0 mm 5 m/s 737 mmHg 83%
    01:00 +3°C° 0 mm 3 m/s 737 mmHg 88%
    02:00 +3°C° 0 mm 3 m/s 738 mmHg 87%
    03:00 +1°C° 0 mm 4 m/s 738 mmHg 87%
    04:00 +1°C° 0 mm 4 m/s 738 mmHg 87%
    05:00 +3°C° 0 mm 4 m/s 739 mmHg 85%
    06:00 +3°C° 0 mm 4 m/s 739 mmHg 84%
    07:00 +3°C° 0 mm 4 m/s 740 mmHg 81%
    08:00 +5°C° 0 mm 5 m/s 741 mmHg 75%
    09:00 +6°C° 0 mm 5 m/s 741 mmHg 68%
    10:00 +7°C° 0 mm 5 m/s 741 mmHg 62%
    11:00 +8°C° 0 mm 5 m/s 742 mmHg 58%
    12:00 +9°C° 0 mm 5 m/s 742 mmHg 54%
    13:00 +10°C° 0 mm 5 m/s 742 mmHg 50%
    14:00 +10°C° 0 mm 5 m/s 742 mmHg 50%
    15:00 +11°C° 0 mm 4 m/s 742 mmHg 51%
    16:00 +11°C° 0 mm 4 m/s 742 mmHg 51%
    17:00 +9°C° 0 mm 3 m/s 742 mmHg 58%
    18:00 +8°C° 0 mm 3 m/s 742 mmHg 64%
    19:00 +6°C° 0 mm 2 m/s 743 mmHg 70%
    20:00 +6°C° 0 mm 2 m/s 743 mmHg 71%
    21:00 +5°C° 0 mm 2 m/s 743 mmHg 72%
    22:00 +5°C° 0 mm 2 m/s 744 mmHg 74%
    23:00 +5°C° 0 mm 2 m/s 744 mmHg 74%

    Amanhã, 26 Setembro, Quarta-feira

    Tempo Temperatura Precipitação Vento Pressão Humidade
    00:00 +4°C° 0 mm 2 m/s 744 mmHg 75%
    01:00 +4°C° 0 mm 2 m/s 744 mmHg 75%
    02:00 +4°C° 0 mm 2 m/s 744 mmHg 76%
    03:00 +4°C° 0 mm 2 m/s 743 mmHg 76%
    04:00 +3°C° 0 mm 2 m/s 743 mmHg 76%
    05:00 +4°C° 0 mm 2 m/s 743 mmHg 75%
    06:00 +4°C° 0 mm 2 m/s 743 mmHg 74%
    07:00 +5°C° 0 mm 2 m/s 743 mmHg 72%
    08:00 +7°C° 0 mm 3 m/s 743 mmHg 64%
    09:00 +9°C° 0 mm 3 m/s 743 mmHg 56%
    10:00 +11°C° 0 mm 3 m/s 743 mmHg 48%
    11:00 +12°C° 0 mm 4 m/s 742 mmHg 44%
    12:00 +13°C° 0 mm 4 m/s 742 mmHg 41%
    13:00 +14°C° 0 mm 4 m/s 741 mmHg 38%
    14:00 +14°C° 0 mm 4 m/s 741 mmHg 40%
    15:00 +14°C° 0 mm 4 m/s 740 mmHg 41%
    16:00 +14°C° 0 mm 4 m/s 740 mmHg 42%
    17:00 +13°C° 0 mm 4 m/s 740 mmHg 45%
    18:00 +11°C° 0 mm 4 m/s 739 mmHg 47%
    19:00 +10°C° 0 mm 4 m/s 739 mmHg 50%
    20:00 +10°C° 0 mm 4 m/s 739 mmHg 51%
    21:00 +8°C° 0 mm 4 m/s 739 mmHg 51%
    22:00 +8°C° 0 mm 4 m/s 739 mmHg 52%
    23:00 +8°C° 0 mm 4 m/s 739 mmHg 53%

    Depois de amanhã, 27 Setembro, Quinta-feira

    Tempo Temperatura Precipitação Vento Pressão Humidade
    00:00 +8°C° 0 mm 4 m/s 739 mmHg 54%
    01:00 +8°C° 0 mm 4 m/s 739 mmHg 55%
    02:00 +8°C° 0 mm 4 m/s 739 mmHg 55%
    03:00 +8°C° 0 mm 4 m/s 739 mmHg 56%
    04:00 +8°C° 0 mm 4 m/s 738 mmHg 56%
    05:00 +9°C° 0 mm 3 m/s 738 mmHg 57%
    06:00 +9°C° 0 mm 3 m/s 738 mmHg 57%
    07:00 +10°C° 0 mm 3 m/s 738 mmHg 57%
    08:00 +12°C° 0 mm 4 m/s 738 mmHg 55%
    09:00 +14°C° 0 mm 4 m/s 739 mmHg 53%
    10:00 +17°C° 0 mm 4 m/s 739 mmHg 50%
    11:00 +18°C° 0 mm 4 m/s 738 mmHg 50%
    12:00 +19°C° 0 mm 4 m/s 738 mmHg 51%
    13:00 +20°C° 0 mm 4 m/s 738 mmHg 51%
    14:00 +20°C° 0 mm 4 m/s 737 mmHg 52%
    15:00 +20°C° 0 mm 3 m/s 737 mmHg 54%
    16:00 +20°C° 0 mm 3 m/s 737 mmHg 55%
    17:00 +18°C° 0 mm 3 m/s 736 mmHg 60%
    18:00 +17°C° 0 mm 2 m/s 736 mmHg 64%
    19:00 +15°C° 0 mm 2 m/s 736 mmHg 69%
    20:00 +14°C° 0 mm 2 m/s 735 mmHg 68%
    21:00 +14°C° 0 mm 2 m/s 735 mmHg 66%
    22:00 +14°C° 0 mm 2 m/s 735 mmHg 65%
    23:00 +12°C° 0 mm 3 m/s 734 mmHg 64%

    28 Setembro, Sexta-feira

    Tempo Temperatura Precipitação Vento Pressão Humidade
    00:00 +12°C° 0 mm 3 m/s 733 mmHg 64%
    01:00 +12°C° 0 mm 3 m/s 733 mmHg 63%
    02:00 +11°C° 0 mm 3 m/s 732 mmHg 63%
    03:00 +11°C° 0 mm 3 m/s 732 mmHg 63%
    04:00 +11°C° 0 mm 3 m/s 731 mmHg 63%
    05:00 +11°C° 0 mm 3 m/s 731 mmHg 63%
    06:00 +11°C° 0 mm 3 m/s 731 mmHg 64%
    07:00 +10°C° 0 mm 3 m/s 731 mmHg 64%
    08:00 +12°C° 0 mm 3 m/s 731 mmHg 60%
    09:00 +14°C° 0 mm 3 m/s 731 mmHg 55%
    10:00 +17°C° 0 mm 4 m/s 732 mmHg 50%
    11:00 +17°C° 0 mm 4 m/s 731 mmHg 49%
    12:00 +18°C° 0 mm 4 m/s 731 mmHg 48%
    13:00 +19°C° 0 mm 4 m/s 731 mmHg 47%
    14:00 +18°C° 0 mm 4 m/s 731 mmHg 52%
    15:00 +17°C° 0 mm 4 m/s 731 mmHg 56%
    16:00 +15°C° 0 mm 4 m/s 731 mmHg 61%
    17:00 +14°C° 0 mm 4 m/s 731 mmHg 68%
    18:00 +12°C° 0 mm 3 m/s 732 mmHg 75%
    19:00 +10°C° 0 mm 3 m/s 732 mmHg 82%
    20:00 +10°C° 0 mm 2 m/s 732 mmHg 82%
    21:00 +9°C° 0 mm 2 m/s 732 mmHg 83%
    22:00 +8°C° 0 mm 2 m/s 733 mmHg 84%
    23:00 +8°C° 0 mm 2 m/s 733 mmHg 84%

    29 Setembro, Sábado

    Tempo Temperatura Precipitação Vento Pressão Humidade
    00:00 +7°C° 0 mm 2 m/s 733 mmHg 84%
    01:00 +7°C° 0 mm 2 m/s 733 mmHg 83%
    02:00 +6°C° 0 mm 2 m/s 733 mmHg 85%
    03:00 +6°C° 0 mm 2 m/s 734 mmHg 87%
    04:00 +5°C° 0 mm 2 m/s 734 mmHg 89%
    05:00 +6°C° 0 mm 2 m/s 734 mmHg 88%
    06:00 +6°C° 0 mm 2 m/s 735 mmHg 88%
    07:00 +6°C° 0 mm 2 m/s 735 mmHg 87%
    08:00 +7°C° 0 mm 2 m/s 736 mmHg 76%
    09:00 +9°C° 0 mm 3 m/s 736 mmHg 66%
    10:00 +11°C° 0 mm 3 m/s 737 mmHg 55%
    11:00 +11°C° 0 mm 3 m/s 736 mmHg 52%
    12:00 +12°C° 0 mm 3 m/s 736 mmHg 48%
    13:00 +12°C° 0 mm 3 m/s 736 mmHg 45%
    14:00 +12°C° 0 mm 3 m/s 736 mmHg 46%
    15:00 +12°C° 0 mm 3 m/s 736 mmHg 46%
    16:00 +12°C° 0 mm 3 m/s 736 mmHg 47%
    17:00 +10°C° 0 mm 2 m/s 736 mmHg 53%
    18:00 +9°C° 0 mm 2 m/s 736 mmHg 58%
    19:00 +7°C° 0 mm 2 m/s 736 mmHg 64%
    20:00 +7°C° 0 mm 2 m/s 736 mmHg 66%
    21:00 +6°C° 0 mm 2 m/s 736 mmHg 67%
    22:00 +6°C° 0 mm 2 m/s 737 mmHg 68%
    23:00 +5°C° 0 mm 2 m/s 736 mmHg 69%

    30 Setembro, Domingo

    Tempo Temperatura Precipitação Vento Pressão Humidade
    00:00 +5°C° 0 mm 2 m/s 736 mmHg 70%
    01:00 +5°C° 0 mm 2 m/s 736 mmHg 71%
    02:00 +4°C° 0 mm 2 m/s 736 mmHg 73%
    03:00 +5°C° 0 mm 1 m/s 735 mmHg 74%
    04:00 +5°C° 0 mm 1 m/s 735 mmHg 76%
    05:00 +5°C° 0 mm 1 m/s 735 mmHg 76%
    06:00 +4°C° 0 mm 2 m/s 735 mmHg 76%
    07:00 +5°C° 0 mm 2 m/s 735 mmHg 75%
    08:00 +7°C° 0 mm 2 m/s 734 mmHg 67%
    09:00 +9°C° 0 mm 3 m/s 734 mmHg 59%
    10:00 +11°C° 0 mm 3 m/s 734 mmHg 50%
    11:00 +12°C° 0 mm 3 m/s 734 mmHg 47%
    12:00 +13°C° 0 mm 3 m/s 733 mmHg 45%
    13:00 +14°C° 0 mm 3 m/s 733 mmHg 42%
    14:00 +14°C° 0 mm 3 m/s 732 mmHg 43%
    15:00 +14°C° 0 mm 3 m/s 732 mmHg 45%
    16:00 +14°C° 0 mm 3 m/s 731 mmHg 46%
    17:00 +13°C° 0 mm 2 m/s 731 mmHg 52%
    18:00 +10°C° 0 mm 2 m/s 731 mmHg 58%
    19:00 +8°C° 0 mm 2 m/s 730 mmHg 64%
    20:00 +9°C° 0 mm 1 m/s 730 mmHg 66%
    21:00 +8°C° 0 mm 1 m/s 730 mmHg 67%
    22:00 +8°C° 0 mm 1 m/s 730 mmHg 68%
    23:00 +7°C° 0 mm 1 m/s 729 mmHg 68%
    Mostrar mais